Weather History for Jefferson City, MO

Change the Weather History Date:

Sunday, December 15, 2013

  Actual Average Record
Temperature  
Mean Temperature 30 °F -  
Max Temperature 39 °F 42 °F 75 °F (1948)
Min Temperature 21 °F 21 °F -9 °F (1943)
Degree Days  
Heating Degree Days 35    
Moisture  
Dew Point 23 °F    
Average Humidity 80    
Maximum Humidity 92    
Minimum Humidity 65    
Precipitation  
Precipitation 0.05 in - - ()
Sea Level Pressure  
Sea Level Pressure 30.12 in    
Wind  
Wind Speed 7 mph (WSW)    
Max Wind Speed 13 mph    
Max Gust Speed -    
Visibility 7 miles    
Events      
Averages and records for this station are not official NWS values.
T = Trace of Precipitation, MM = Missing Value Source: NWS Daily Summary

Daily Weather History Graph

Daily Weather History Graph

Search for Another Location

Airport:

Trip Planner

Search our weather history database for the weather conditions in past years. The results will help you decide how hot, cold, wet, or windy it might be!

Date:

Astronomy

Dec. 15, 2013 Rise Set
Actual Time 7:19 AM CST 4:48 PM CST
Civil Twilight 6:49 AM CST 5:18 PM CST
Nautical Twilight 6:16 AM CST 5:51 PM CST
Astronomical Twilight 5:43 AM CST 6:23 PM CST
Moon 3:52 PM CST (12/15) 5:36 AM CST (12/15)
Length of Visible Light 10h 28m
Length of Day
9h 29m
Waxing Gibbous, 98% of the Moon is Illuminated
Dec 15
Waxing Gibbous
Dec 17
Full
Dec 25
Last Quarter
Jan 1
New
Jan 7
First Quarter

Hourly Weather History & Observations

Time (CST) Temp. Windchill Dew Point Humidity Pressure Visibility Wind Dir Wind Speed Gust Speed Precip Events Conditions
12:53 AM 26.1 °F 16.2 °F 19.0 °F 75% 30.19 in 8.0 mi WNW 10.4 mph - N/A   Overcast
1:53 AM 25.0 °F 13.6 °F 19.0 °F 78% 30.19 in 8.0 mi WNW 12.7 mph - N/A   Overcast
2:45 AM 24.8 °F 14.6 °F 17.6 °F 74% 30.22 in 7.0 mi WNW 10.4 mph - N/A   Overcast
2:53 AM 24.1 °F 12.5 °F 17.1 °F 75% 30.20 in 7.0 mi WNW 12.7 mph - N/A   Overcast
3:17 AM 23.0 °F 14.7 °F 17.6 °F 80% 30.21 in 7.0 mi WNW 6.9 mph - N/A   Overcast
3:53 AM 24.1 °F 16.0 °F 18.0 °F 77% 30.21 in 7.0 mi WNW 6.9 mph - N/A   Overcast
4:00 AM 23.0 °F 14.7 °F 17.6 °F 80% 30.21 in 7.0 mi WNW 6.9 mph - N/A   Overcast
4:22 AM 21.2 °F 13.6 °F 17.6 °F 86% 30.21 in 6.0 mi WNW 5.8 mph - N/A   Haze
4:53 AM 21.9 °F 17.2 °F 16.0 °F 78% 30.20 in 6.0 mi West 3.5 mph - N/A   Haze
5:53 AM 21.9 °F 15.7 °F 17.1 °F 82% 30.19 in 6.0 mi West 4.6 mph - N/A   Haze
6:53 AM 21.9 °F 17.2 °F 17.1 °F 82% 30.20 in 6.0 mi SW 3.5 mph - N/A   Haze
7:53 AM 21.9 °F - 17.1 °F 82% 30.19 in 5.0 mi Calm Calm - N/A   Haze
8:53 AM 24.1 °F - 18.0 °F 77% 30.19 in 5.0 mi Calm Calm - N/A   Haze
9:53 AM 27.0 °F 21.6 °F 21.0 °F 78% 30.18 in 6.0 mi South 4.6 mph - N/A   Haze
10:53 AM 30.0 °F 23.2 °F 21.9 °F 72% 30.15 in 7.0 mi SW 6.9 mph - 0.04 in   Clear
11:53 AM 33.1 °F 27.7 °F 25.0 °F 72% 30.10 in 9.0 mi Variable 5.8 mph - 0.01 in   Overcast
12:53 PM 35.1 °F 30.1 °F 25.0 °F 67% 30.08 in 9.0 mi East 5.8 mph - N/A   Clear
1:53 PM 37.0 °F 31.0 °F 27.0 °F 67% 30.05 in 9.0 mi SE 8.1 mph - N/A   Clear
2:53 PM 39.9 °F 34.5 °F 28.9 °F 65% 30.04 in 9.0 mi SSE 8.1 mph - N/A   Clear
3:53 PM 39.9 °F - 30.0 °F 68% 30.05 in 10.0 mi Calm Calm - N/A   Clear
4:53 PM 37.0 °F - 30.0 °F 76% 30.06 in 8.0 mi Calm Calm - N/A   Clear
5:53 PM 34.0 °F - 30.0 °F 85% 30.04 in 7.0 mi Calm Calm - N/A   Clear
6:53 PM 30.9 °F - 28.9 °F 92% 30.04 in 6.0 mi Calm Calm - N/A   Partly Cloudy
7:53 PM 30.9 °F - 28.9 °F 92% 30.05 in 5.0 mi Calm Calm - N/A   Mostly Cloudy
8:53 PM 30.9 °F 25.2 °F 28.9 °F 92% 30.03 in 5.0 mi SE 5.8 mph - N/A   Overcast
9:53 PM 32.0 °F 26.4 °F 30.0 °F 92% 30.01 in 5.0 mi SE 5.8 mph - N/A   Overcast
10:53 PM 32.0 °F 28.7 °F 30.0 °F 92% 30.00 in 4.0 mi SE 3.5 mph - N/A   Overcast
11:53 PM 32.0 °F 28.7 °F 30.0 °F 92% 29.99 in 4.0 mi ESE 3.5 mph - N/A   Overcast